Location: Vihti�l�
(61.3833°N, 23.0667°E)
Time: 03:56:52
(UTC+00:00)

Sich 1 - Pass Details

Date: 29 November 2020
Orbit: 593 x 626 km, 82.5° (Epoch: 19 January)

Event Time Altitude Azimuth Distance (km) Brightness Sun altitude
Rises 04:54:58 0° 188° (S) 2,906 6.7 -14.3°
Reaches altitude 10° 04:57:11 10° 186° (S) 2,004 5.8 -14.1°
Maximum altitude 05:01:37 77° 103° (ESE) 652 3.3 -13.6°
Drops below altitude 10° 05:06:05 10° 17° (NNE) 2,014 5.6 -13.1°
Sets 05:08:20 0° 16° (NNE) 2,922 6.5 -12.8°
